Location: Chillicothe
(39.7950°N, 93.5520°W)
Time: 10:21:41
(UTC-05:00)

Courier 1B Rocket - All Passes

Search period start: 19 October 2019 00:00
Search period end: 29 October 2019 00:00
Orbit: 920 x 1202 km, 28.2° (Epoch: 19 October)

Date Brightness Start Highest point End Pass type
(mag) Time Alt. Az. Time Alt. Az. Time Alt. Az.
19 Oct - 04:27:36 10° SSW 04:31:51 19° SSE 04:36:09 10° ESE visible
19 Oct - 06:19:09 10° SW 06:24:24 28° S 06:29:49 10° ESE visible
19 Oct - 08:11:58 10° WSW 08:17:03 25° S 08:22:23 10° SE daylight
19 Oct - 10:06:36 10° SW 10:09:38 13° SSW 10:12:47 10° S daylight
20 Oct - 03:27:48 10° SSW 03:31:10 15° SSE 03:34:32 10° SE visible
20 Oct - 05:18:34 10° SW 05:23:38 26° S 05:28:47 10° ESE visible
20 Oct - 07:11:04 10° WSW 07:16:16 27° S 07:21:39 10° SE daylight
20 Oct - 09:04:51 10° WSW 09:08:52 17° SSW 09:13:02 10° SSE daylight
21 Oct - 02:28:57 10° S 02:30:29 11° SSE 02:32:01 10° SE night (unlit)
21 Oct - 04:18:06 10° SW 04:22:54 23° SSE 04:27:42 10° ESE visible
21 Oct - 06:10:16 10° WSW 06:15:30 28° S 06:20:50 10° SE visible
21 Oct - 08:03:33 10° WSW 08:08:07 21° SSW 08:12:49 10° SSE daylight
22 Oct - 03:17:49 10° SSW 03:22:11 20° SSE 03:26:30 10° ESE visible
22 Oct - 05:09:32 10° SW 05:14:45 28° S 05:19:59 10° ESE visible
22 Oct - 07:02:28 10° WSW 07:07:22 24° S 07:12:22 10° SE visible
22 Oct - 08:57:26 10° SW 08:59:52 12° SSW 09:02:19 10° S daylight
23 Oct - 02:17:50 10° SSW 02:21:28 16° SSE 02:25:02 10° SE night (unlit)
23 Oct - 04:08:51 10° SW 04:13:59 26° S 04:19:04 10° ESE visible
23 Oct - 06:01:30 10° WSW 06:06:36 27° S 06:11:46 10° SE visible
23 Oct - 07:55:27 10° SW 07:59:08 16° SSW 08:02:53 10° SSE daylight
24 Oct - 01:18:33 10° S 01:20:45 12° SSE 01:22:56 10° SE night (unlit)
24 Oct - 03:08:17 10° SW 03:13:15 24° SSE 03:18:06 10° ESE visible
24 Oct - 05:00:37 10° WSW 05:05:51 28° S 05:11:04 10° SE visible
24 Oct - 06:54:03 10° WSW 06:58:25 20° SSW 07:02:51 10° SSE visible
25 Oct - 02:07:51 10° SSW 02:12:30 20° SSE 02:17:00 10° ESE night (unlit)
25 Oct - 03:59:47 10° SW 04:05:05 28° S 04:10:19 10° ESE visible
25 Oct - 05:52:52 10° WSW 05:57:42 23° SSW 06:02:31 10° SE visible
25 Oct - 07:48:19 10° SW 07:50:07 11° SSW 07:51:56 10° S daylight
26 Oct - 01:07:41 10° SSW 01:11:44 17° SSE 01:15:40 10° ESE night (unlit)
26 Oct - 02:58:59 10° SW 03:04:20 27° S 03:09:30 10° ESE visible
26 Oct - 04:51:49 10° WSW 04:56:57 26° S 05:02:02 10° SE visible
26 Oct - 06:45:59 10° SW 06:49:26 15° SSW 06:52:55 10° SSE visible
27 Oct - 00:08:02 10° S 00:10:58 13° SSE 00:13:51 10° SE night (unlit)
27 Oct - 01:58:17 10° SW 02:03:33 25° S 02:08:36 10° ESE night (unlit)
27 Oct - 03:50:49 10° WSW 03:56:12 28° S 04:01:26 10° SE visible
27 Oct - 05:44:25 10° WSW 05:48:44 19° SSW 05:53:03 10° SSE visible
28 Oct - 00:57:44 10° SSW 01:02:45 22° SSE 01:07:33 10° ESE night (unlit)
28 Oct - 02:49:51 10° WSW 02:55:26 29° S 03:00:45 10° ESE night (unlit)
28 Oct - 04:43:07 10° WSW 04:48:02 23° SSW 04:52:51 10° SE visible
28 Oct - 06:39:03 10° SW 06:40:25 11° SSW 06:41:47 10° SSW visible
